EGBB

Birmingham International Airport

Airport
ICAO code
EGBB
IATA Code
BHX
Summary
ICAO Region
EUR
ICAO Territory
Location

Elmdon, England

Serving
Birmingham
Elevation
328 ft
Coordinates
52° 27' 13" N , 1° 44' 51" W
KCC
Metar
Observation
EGBB 090550Z 27003KT 240V320 9999 OVC010 04/03 Q1030
Station
Birmingham / Airport
Date/Time
2023-02-09 05:50:00
Wind direction
270°
Wind speed
03 kts
Lowest cloud amount
overcast
Temperature
4°C
Dew point
3°C
Humidity
93%
QNH
1030 hPa
Weather condition
n/a

Description

International airport serving Birmingham and the West Midlands conurbation.

Climatology

Temperate Marine climate/Oceanic climate (Köppen climate classification Cfb). Moderately cool summer and comparatively warm winter with a temperature range of only 14°C. Prevailing south-westerly winds from the Atlantic Ocean.

Runways

Designator Length Width Surface Rops
6/24 1315 30 ASP Yes/Yes
15/33 2605 46 ASP Yes/Yes

SKYbrary Partners:

Safety knowledge contributed by: